GPS BIIR-18M (32384 NORAD) Tracking and Keplerian Element Data

This shows tracking and keplerian element data for the satellite.

Feedback or suggestion? Click here.




ElementValue
Catalog32384
NameGPS BIIR-18M
Epoch Orbit12550
Epoch Day34.21077921
Epoch Year2025
RAAN294.1585
Inclination55.4419
Eccentricity0.002842
Argument of Perigee154.1355
Mean Anonmoly19.1808
Mean Motion2.00559629
Decay Rate-3.1E-07
L11 32384U 07062A 25034.21077921 -.00000031 00000+0 00000+0 0 9991
L22 32384 55.4419 294.1585 0028420 154.1355 19.1808 2.00559629125502



Live tracking and technical data element details for GPS BIIR-18M (NORAD 32384). GPS BIIR-18M can be tracked NOW for your location showing map with azimuth and elevation plus other details from your city location.







IsCatalogInMostPopularTable: catalog: 32384, numindb: 376
Update: records affected: 1



GetName: 32384 GPS BIIR-18M

Hit Count: updated at: Thu, 15 May 2025 19:58:51 GMT